This is the latest recevied weather packets stored in our database for station/object NQ9F. If no packets are shown the sender has not sent any weather packets the latest 10 day(s).
| Time | Temp. | Humidity | Pressure | Rain* | Wind** | Luminosity | Snow |
|---|---|---|---|---|---|---|---|
| 1777647752 | 13.33° C | 90% | 1017.6 hPa | 0 mm | - | 99 W/m² | - |
| 1777647448 | 13.33° C | 90% | 1017.8 hPa | 0 mm | - | 68 W/m² | - |
| 1777647146 | 13.33° C | 90% | 1017.5 hPa | 0 mm | - | 96 W/m² | - |
| 1777646842 | 13.33° C | 91% | 1017.4 hPa | 0 mm | - | 89 W/m² | - |
| 1777646234 | 13.33° C | 91% | 1017.1 hPa | 0 mm | - | 75 W/m² | - |
| 1777645932 | 13.33° C | 91% | 1017.1 hPa | 0 mm | - | 73 W/m² | - |
| 1777645629 | 13.33° C | 91% | 1017.4 hPa | 0 mm | - | 59 W/m² | - |
| 1777645324 | 13.33° C | 91% | 1017.6 hPa | 0 mm | - | 56 W/m² | - |
| 1777645020 | 13.33° C | 91% | 1017.5 hPa | 0 mm | - | 52 W/m² | - |
| 1777644718 | 13.33° C | 92% | 1017.4 hPa | 0 mm | - | 52 W/m² | - |
| 1777644414 | 13.33° C | 92% | 1017.6 hPa | 0 mm | - | 55 W/m² | - |
| 1777644111 | 13.33° C | 93% | 1017.6 hPa | 0 mm | - | 54 W/m² | - |
| 1777643807 | 13.33° C | 93% | 1017.5 hPa | 0 mm | - | 44 W/m² | - |
| 1777643505 | 13.33° C | 94% | 1017.3 hPa | 0 mm | - | 46 W/m² | - |
| 1777643201 | 13.33° C | 95% | 1017.5 hPa | 0 mm | - | 46 W/m² | - |
| 1777642898 | 13.33° C | 95% | 1016.9 hPa | 0 mm | - | 62 W/m² | - |
| 1777642595 | 13.33° C | 95% | 1016.6 hPa | 0 mm | - | 51 W/m² | - |
| 1777642292 | 13.33° C | 95% | 1016.5 hPa | 0 mm | - | 47 W/m² | - |
| 1777641988 | 13.33° C | 95% | 1016.8 hPa | 0 mm | - | 31 W/m² | - |
| 1777641684 | 13.33° C | 95% | 1017 hPa | 0 mm | - | 30 W/m² | - |
| 1777641379 | 13.33° C | 96% | 1016.8 hPa | 0 mm | - | 26 W/m² | - |
| 1777641075 | 13.33° C | 96% | 1016.7 hPa | 0 mm | - | 23 W/m² | - |
| 1777640771 | 13.33° C | 96% | 1016.7 hPa | 0 mm | - | 16 W/m² | - |
| 1777639250 | 12.78° C | 96% | 1016.8 hPa | 0 mm | - | 25 W/m² | - |
| 1777638642 | 12.78° C | 96% | 1016.8 hPa | 0 mm | - | 22 W/m² | - |
* Rain latest hour (hover to see other rain measurements)
** Current wind speed in m/s (hover to see current wind gust speed)